Regional Weather Roundup
Issued by NWS

Home | Current Version | Previous Version | Text Only | Print | Product List | Glossary Off
Versions: 1 2 3 4 5 6 7 8 9 10 11 12 13 14 15 16 17 18 19 20 21 22 23 24 25 26 27 28 29 30 31 32 33 34 35 36 37 38 39 40 41 42 43 44 45 46 47 48 49 50

000
ASUS43 KBIS 200502
RWRND

NORTH DAKOTA REGIONAL WEATHER ROUNDUP
NATIONAL WEATHER SERVICE BISMARCK ND
1100 PM CST THU JAN 19 2017

NOTE: "FAIR" INDICATES FEW OR NO CLOUDS BELOW 12,000 FEET WITH NO
SIGNIFICANT WEATHER AND/OR OBSTRUCTIONS TO VISIBILITY.


NDZ001>003-009>011-017-200600-
NORTHWEST NORTH DAKOTA

CITY           SKY/WX    TMP DP  RH WIND       PRES   REMARKS
WILLISTON      FAIR      19  17  92 SW6       29.44R WCI  11
MINOT          FAIR      24  20  84 SW5       29.40F WCI  18
MINOT AFB      CLOUDY    19  16  88 CALM      29.39F
$$

NDZ018>021-031>035-040>046-200600-
SOUTHWEST NORTH DAKOTA

CITY           SKY/WX    TMP DP  RH WIND       PRES   REMARKS
BISMARCK       FAIR      13  10  88 SE6       29.48S WCI   4
DICKINSON      FAIR      19  16  88 W7        29.39F WCI  10
GARRISON         N/A     13  11  92 SE3       29.42F
HETTINGER ARPT CLOUDY    17  13  84 NW6       29.42F WCI   9
$$

NDZ004>008-012>016-024-026-027-054-200600-
NORTHEAST NORTH DAKOTA

CITY           SKY/WX    TMP DP  RH WIND       PRES   REMARKS
GRAND FORKS    CLOUDY    35  32  88 S12       29.55S FOG
GRND FRKS AFB  CLOUDY    34  33  98 S15       29.54S
DEVILS LAKE    LGT SNOW  25  24  96 S10       29.49S FOG     WCI  15
$$

NDZ022-023-025-028>030-036>039-047>053-200600-
SOUTHEAST NORTH DAKOTA

CITY           SKY/WX    TMP DP  RH WIND       PRES   REMARKS
FARGO          CLOUDY    35  35 100 SE10      29.58S FOG
JAMESTOWN      CLOUDY    33  33 100 S7        29.49F FOG
$$





USA.gov is the U.S. government's official web portal to all federal, state and local government web resources and services.